Weather History for KECS - October, 2013

Change the Weather History Date:

Monday, October 21, 2013

  Actual Average (KCUT) Record (KCUT)
Temperature  
Mean Temperature 42 °F 41 °F  
Max Temperature 50 °F 53 °F 76 °F (1950)
Min Temperature 33 °F 30 °F 9 °F (1976)
Degree Days  
Heating Degree Days 24 24  
Month to date heating degree days 439  
Since 1 July heating degree days 925  
Cooling Degree Days 0 0  
Month to date cooling degree days 0  
Year to date cooling degree days 177  
Moisture  
Dew Point 35 °F    
Average Humidity 78    
Maximum Humidity 100    
Minimum Humidity 54    
Precipitation  
Precipitation 0.00 in 0.04 in 1.41 in (1931)
Month to date precipitation 1.18  
Year to date precipitation 17.67  
Sea Level Pressure  
Sea Level Pressure 30.04 in    
Wind  
Wind Speed 8 mph (NW)    
Max Wind Speed 26 mph    
Max Gust Speed 34 mph    
Visibility 10 miles    
Events Rain    
T = Trace of Precipitation, MM = Missing Value Source: NWS Daily Summary

Daily Weather History Graph

Daily Weather History Graph

Search for Another Location

Airport or City:

Trip Planner

Search our weather history database for the weather conditions in past years. The results will help you decide how hot, cold, wet, or windy it might be!

Date:

Astronomy

Oct. 21, 2013 Rise Set
Actual Time 7:19 AM MDT 6:03 PM MDT
Civil Twilight 6:50 AM MDT 6:32 PM MDT
Nautical Twilight 6:16 AM MDT 7:06 PM MDT
Astronomical Twilight 5:43 AM MDT 7:39 PM MDT
Moon 7:53 PM MDT (10/21) 10:01 AM MDT (10/21)
Length of Visible Light 11h 42m
Length of Day
10h 43m
Waning Gibbous, 92% of the Moon is Illuminated
Oct 21
Waning Gibbous
Oct 26
Last Quarter
Nov 3
New
Nov 9
First Quarter
Nov 17
Full

Hourly Weather History & Observations

Time (MDT) Temp. Windchill Dew Point Humidity Pressure Visibility Wind Dir Wind Speed Gust Speed Precip Events Conditions
12:15 AM 35.6 °F 29.9 °F 33.8 °F 93% 30.07 in 10.0 mi NW 6.9 mph - N/A   Overcast
12:35 AM 35.6 °F 29.9 °F 33.8 °F 93% 30.07 in 10.0 mi NW 6.9 mph - N/A   Overcast
12:55 AM 35.6 °F 29.2 °F 32.0 °F 87% 30.07 in 10.0 mi NW 8.1 mph - N/A   Overcast
1:15 AM 35.6 °F 30.7 °F 32.0 °F 87% 30.07 in 10.0 mi NNW 5.8 mph - N/A   Overcast
1:35 AM 35.6 °F 29.2 °F 32.0 °F 87% 30.07 in 10.0 mi NNW 8.1 mph - N/A   Mostly Cloudy
1:55 AM 35.6 °F 29.2 °F 32.0 °F 87% 30.08 in 10.0 mi North 8.1 mph - N/A   Overcast
2:15 AM 35.6 °F 29.2 °F 32.0 °F 87% 30.08 in 10.0 mi North 8.1 mph - N/A   Mostly Cloudy
2:35 AM 35.6 °F 30.7 °F 32.0 °F 87% 30.08 in 10.0 mi NW 5.8 mph - N/A Rain Light Rain
2:55 AM 35.6 °F 32.8 °F 32.0 °F 87% 30.08 in 10.0 mi NW 3.5 mph - N/A   Mostly Cloudy
3:15 AM 35.6 °F - 33.8 °F 93% 30.08 in 10.0 mi Calm Calm - N/A   Mostly Cloudy
3:35 AM 33.8 °F 30.8 °F 32.0 °F 93% 30.08 in 10.0 mi NNW 3.5 mph - N/A   Mostly Cloudy
3:55 AM 35.6 °F - 33.8 °F 93% 30.07 in 10.0 mi Calm Calm - N/A   Mostly Cloudy
4:15 AM 33.8 °F - 32.0 °F 93% 30.07 in 10.0 mi Calm Calm - N/A   Mostly Cloudy
4:35 AM 33.8 °F 29.6 °F 32.0 °F 93% 30.07 in 10.0 mi North 4.6 mph - N/A   Mostly Cloudy
4:55 AM 33.8 °F 29.6 °F 32.0 °F 93% 30.06 in 10.0 mi NNE 4.6 mph - N/A   Scattered Clouds
5:15 AM 35.6 °F 30.7 °F 32.0 °F 87% 30.06 in 10.0 mi North 5.8 mph - N/A   Scattered Clouds
5:35 AM 35.6 °F 31.7 °F 32.0 °F 87% 30.05 in 10.0 mi NNE 4.6 mph - N/A   Mostly Cloudy
5:55 AM 35.6 °F 30.7 °F 32.0 °F 87% 30.06 in 10.0 mi North 5.8 mph - N/A   Overcast
6:15 AM 35.6 °F - 32.0 °F 87% 30.06 in 10.0 mi Calm Calm - N/A   Overcast
6:35 AM 35.6 °F - 32.0 °F 87% 30.06 in 10.0 mi Calm Calm - N/A   Light Drizzle
6:55 AM 33.8 °F 30.8 °F 33.8 °F 100% 30.06 in 10.0 mi South 3.5 mph - N/A   Light Drizzle
7:15 AM 33.8 °F - 33.8 °F 100% 30.06 in 10.0 mi Calm Calm - N/A   Overcast
7:35 AM 35.6 °F - 33.8 °F 93% 30.06 in 10.0 mi Calm Calm - N/A   Overcast
7:55 AM 35.6 °F - 33.8 °F 93% 30.04 in 10.0 mi Calm Calm - N/A Rain Light Rain
8:15 AM 35.6 °F 32.8 °F 33.8 °F 93% 30.05 in 10.0 mi SE 3.5 mph - N/A   Light Drizzle
8:35 AM 35.6 °F 32.8 °F 33.8 °F 93% 30.06 in 10.0 mi ESE 3.5 mph - N/A   Mostly Cloudy
8:55 AM 35.6 °F - 33.8 °F 93% 30.05 in 10.0 mi Calm Calm - N/A   Overcast
9:15 AM 35.6 °F 32.8 °F 35.6 °F 100% 30.04 in 10.0 mi SE 3.5 mph - N/A   Scattered Clouds
9:35 AM 37.4 °F - 35.6 °F 93% 30.04 in 10.0 mi Calm Calm - N/A Rain Rain
9:55 AM 37.4 °F - 35.6 °F 93% 30.05 in 10.0 mi Calm Calm - N/A   Mostly Cloudy
10:15 AM 39.2 °F - 35.6 °F 87% 30.04 in 10.0 mi Calm Calm - N/A Rain Light Rain
10:35 AM 41.0 °F 39.0 °F 35.6 °F 81% 30.04 in 10.0 mi NW 3.5 mph - N/A   Mostly Cloudy
10:55 AM 42.8 °F 38.0 °F 35.6 °F 76% 30.04 in 10.0 mi NW 8.1 mph - N/A   Overcast
11:15 AM 42.8 °F 37.5 °F 37.4 °F 81% 30.04 in 10.0 mi WNW 9.2 mph - N/A   Overcast
11:55 AM 46.4 °F 40.7 °F 37.4 °F 71% 30.04 in 10.0 mi NW 12.7 mph 20.7 mph N/A   Scattered Clouds
12:15 PM 48.2 °F - 35.6 °F 62% 30.03 in 10.0 mi NW 21.9 mph 33.4 mph N/A   Scattered Clouds
12:35 PM 48.2 °F - 35.6 °F 62% 30.03 in 10.0 mi NW 25.3 mph 31.1 mph N/A   Scattered Clouds
12:55 PM 50.0 °F - 33.8 °F 54% 30.03 in 10.0 mi NW 26.5 mph 34.5 mph N/A   Scattered Clouds
1:15 PM 50.0 °F - 33.8 °F 54% 30.02 in 10.0 mi NW 23.0 mph 34.5 mph N/A   Scattered Clouds
1:35 PM 50.0 °F - 33.8 °F 54% 30.02 in 10.0 mi NW 21.9 mph 32.2 mph N/A   Scattered Clouds
1:55 PM 50.0 °F - 33.8 °F 54% 30.02 in 10.0 mi WNW 24.2 mph 34.5 mph N/A   Mostly Cloudy
2:15 PM 50.0 °F - 35.6 °F 58% 30.01 in 10.0 mi NW 24.2 mph 31.1 mph N/A   Scattered Clouds
2:35 PM 50.0 °F - 33.8 °F 54% 30.00 in 10.0 mi NW 20.7 mph 32.2 mph N/A   Scattered Clouds
2:55 PM 50.0 °F - 35.6 °F 58% 30.00 in 10.0 mi NW 18.4 mph 24.2 mph N/A   Scattered Clouds
3:15 PM 50.0 °F - 33.8 °F 54% 30.01 in 10.0 mi NW 19.6 mph 26.5 mph N/A   Scattered Clouds
3:35 PM 50.0 °F - 35.6 °F 58% 30.01 in 10.0 mi NW 18.4 mph 26.5 mph N/A   Clear
3:55 PM 50.0 °F - 35.6 °F 58% 30.01 in 10.0 mi NW 15.0 mph 24.2 mph N/A   Light Drizzle
4:15 PM 50.0 °F - 35.6 °F 58% 30.00 in 10.0 mi NW 17.3 mph 23.0 mph N/A   Clear
4:35 PM 48.2 °F - 35.6 °F 62% 30.00 in 10.0 mi NW 12.7 mph - N/A   Clear
4:55 PM 48.2 °F - 35.6 °F 62% 30.00 in 10.0 mi NW 12.7 mph - N/A   Light Drizzle
5:15 PM 46.4 °F 41.1 °F 37.4 °F 71% 30.01 in 10.0 mi NNW 11.5 mph - N/A Rain Light Rain
5:35 PM 44.6 °F 38.1 °F 37.4 °F 76% 30.02 in 10.0 mi NW 13.8 mph 23.0 mph N/A Rain Light Rain
5:55 PM 44.6 °F 39.2 °F 37.4 °F 76% 30.00 in 10.0 mi NW 10.4 mph - N/A   Light Drizzle
6:15 PM 44.6 °F 39.2 °F 37.4 °F 76% 30.00 in 10.0 mi NW 10.4 mph - N/A   Scattered Clouds
6:35 PM 44.6 °F 38.1 °F 37.4 °F 76% 30.01 in 10.0 mi NNW 13.8 mph - N/A   Clear
6:55 PM 44.6 °F 38.4 °F 37.4 °F 76% 30.02 in 10.0 mi NNW 12.7 mph 18.4 mph N/A   Light Drizzle
7:15 PM 44.6 °F 38.8 °F 35.6 °F 71% 30.02 in 10.0 mi NW 11.5 mph 20.7 mph N/A   Clear
7:35 PM 44.6 °F 38.8 °F 35.6 °F 71% 30.02 in 10.0 mi NW 11.5 mph - N/A Rain Light Rain
7:55 PM 44.6 °F 38.8 °F 35.6 °F 71% 30.02 in 10.0 mi NNW 11.5 mph - N/A   Scattered Clouds
8:15 PM 44.6 °F 39.7 °F 35.6 °F 71% 30.02 in 10.0 mi NNW 9.2 mph - N/A   Scattered Clouds
8:35 PM 44.6 °F 39.7 °F 35.6 °F 71% 30.03 in 10.0 mi NW 9.2 mph - N/A   Mostly Cloudy
8:55 PM 44.6 °F 39.7 °F 35.6 °F 71% 30.04 in 10.0 mi NNW 9.2 mph - N/A   Mostly Cloudy
9:15 PM 44.6 °F 39.7 °F 35.6 °F 71% 30.04 in 10.0 mi NNW 9.2 mph - N/A   Scattered Clouds
9:35 PM 44.6 °F 39.2 °F 35.6 °F 71% 30.04 in 10.0 mi NNW 10.4 mph - N/A   Clear
9:55 PM 44.6 °F 38.8 °F 35.6 °F 71% 30.04 in 10.0 mi NNW 11.5 mph - N/A   Clear
10:15 PM 44.6 °F 38.8 °F 35.6 °F 71% 30.04 in 10.0 mi NNW 11.5 mph - N/A   Clear
10:35 PM 44.6 °F 38.4 °F 35.6 °F 71% 30.04 in 10.0 mi NNW 12.7 mph - N/A   Clear
10:55 PM 44.6 °F 38.8 °F 35.6 °F 71% 30.04 in 10.0 mi NW 11.5 mph - N/A   Clear
11:15 PM 42.8 °F 37.0 °F 35.6 °F 76% 30.06 in 10.0 mi NW 10.4 mph - N/A   Clear
11:35 PM 42.8 °F 37.5 °F 35.6 °F 76% 30.06 in 10.0 mi NNW 9.2 mph - N/A   Clear
11:55 PM 42.8 °F 38.0 °F 35.6 °F 76% 30.05 in 10.0 mi NNW 8.1 mph - N/A   Clear